Temperature
26 26 25 25 23 22 23 24 25 24 23 23 23 23 22 21 20 18 19 19 20 20 19 19 19 19 19 19 19 19 19 18 18 18 18 18 18 18 18 18 18 18 18 18 18 18 18 18 18
27 26 26 25 23 22 23 25 25 24 24 23 23 22 22 20 19 18 19 19 20 20 20 19 19 19 19 19 19 19 19 18 18 18 18 18 18 18 18 18 18 18 18 18 18 18 18 18 18
27 26 26 23 23 23 24 25 25 25 24 24 23 23 22 21 19 19 20 20 20 20 20 19 19 19 19 19 19 19 19 19 18 18 18 18 18 18 18 18 18 18 18 18 18 18 18 18 17
27 26 26 24 24 25 26 26 26 25 24 24 23 22 22 21 20 20 20 20 20 20 20 20 19 19 19 19 19 19 19 19 18 18 18 18 18 18 18 18 18 18 18 18 18 18 18 18 17
27 27 24 24 25 26 27 26 26 25 24 23 22 21 21 21 21 20 20 21 21 20 20 20 19 19 19 19 19 19 19 19 18 18 18 18 18 18 18 18 18 18 18 18 18 18 18 18 17
28 25 24 24 26 27 27 26 25 24 23 23 22 21 21 21 21 21 21 21 21 20 20 20 19 19 19 19 19 19 19 18 18 18 18 18 18 18 18 18 18 18 18 18 18 18 18 18 17
28 25 25 25 26 26 27 26 25 24 23 23 22 21 21 21 21 21 21 21 21 20 20 20 20 19 19 19 19 19 19 18 18 19 19 18 18 18 18 18 18 18 18 18 18 18 18 18 18
29 25 25 25 26 26 27 27 25 25 24 23 23 22 21 21 21 21 21 21 20 20 20 20 20 20 19 19 19 19 19 18 18 18 18 18 18 18 18 18 18 18 18 18 18 18 18 18 18
30 25 25 26 26 26 27 26 26 25 24 24 24 23 22 22 21 21 20 20 20 20 20 20 20 19 19 19 19 19 18 18 18 18 18 18 18 18 18 18 18 18 18 18 18 18 18 18 18
29 25 26 27 27 26 27 26 26 25 24 23 23 23 22 22 21 21 21 21 20 20 20 20 20 19 19 19 19 19 18 18 18 18 18 18 18 18 18 18 18 18 18 18 18 18 18 18 18
29 27 28 28 28 28 27 26 26 24 23 23 23 22 22 22 22 22 21 21 21 20 20 20 20 19 19 19 19 19 19 18 18 18 18 18 18 18 18 18 18 18 18 18 18 18 18 18 18
29 29 30 29 29 28 27 27 26 25 24 24 24 23 23 22 22 22 21 21 21 20 20 20 20 19 19 19 19 19 19 18 18 18 18 18 18 18 18 18 18 18 18 18 18 18 18 18 18
29 29 30 29 29 28 28 26 26 25 25 24 24 23 23 23 22 22 22 21 21 20 20 20 20 19 19 19 19 19 19 19 18 18 18 18 18 18 18 18 18 18 18 18 18 18 18 18 18
29 29 29 29 29 28 27 26 26 25 25 24 24 23 23 23 23 22 22 22 21 21 20 20 20 20 19 19 19 19 19 19 18 18 18 18 18 18 18 18 18 18 18 18 18 18 18 18 18
30 28 28 28 28 28 27 25 25 25 25 24 24 24 23 23 23 23 22 22 21 21 21 20 20 20 20 19 19 19 19 19 19 18 18 18 18 18 18 18 18 18 18 18 18 18 18 18 18
28 27 26 27 28 27 26 24 25 25 25 24 24 24 23 23 23 23 22 22 22 21 21 20 20 20 20 19 19 19 19 19 19 19 18 18 18 18 18 18 18 18 18 18 18 18 18 18 18
26 26 26 27 28 27 25 24 25 25 25 24 24 24 24 23 23 23 23 22 22 21 21 21 20 20 20 19 19 19 19 19 19 19 19 18 18 18 18 18 18 18 18 18 18 18 18 18 18
26 26 27 27 28 27 26 25 25 26 25 25 24 24 24 23 23 23 23 22 22 21 21 21 20 20 20 19 19 19 19 19 18 18 18 18 18 18 18 18 18 18 18 18 18 18 18 18 18
28 27 27 27 28 27 26 25 25 25 25 25 24 24 24 24 23 23 23 22 22 22 21 21 20 20 20 20 19 19 19 19 18 18 18 18 18 18 18 18 18 18 18 18 18 18 18 18 18
28 27 27 27 28 27 25 25 25 25 25 25 25 24 24 24 23 23 23 22 22 22 21 21 21 20 20 20 19 19 19 19 18 18 18 18 18 18 18 18 18 18 18 18 18 18 18 18 18
28 27 27 27 28 27 26 25 24 25 25 25 25 25 24 24 24 23 23 22 22 22 22 21 21 20 20 20 19 19 19 19 18 18 18 18 18 18 18 18 18 18 18 18 18 18 18 18 18
27 29 29 28 26 24 25 23 23 24 24 24 25 25 24 24 24 24 23 23 22 22 22 21 21 20 20 20 19 19 19 19 19 18 18 18 18 18 18 18 18 18 18 18 18 18 18 18 18
29 29 29 28 26 24 24 23 23 23 23 24 25 25 25 24 24 24 23 23 23 22 22 21 21 20 20 20 19 19 19 19 19 18 18 18 18 18 18 18 18 18 18 18 18 18 18 17 17
30 28 26 23 23 23 24 24 23 22 24 24 25 25 25 25 24 24 24 23 22 22 21 21 21 20 20 20 19 19 19 19 19 18 18 18 18 18 18 18 18 18 18 18 18 18 17 17 17
27 24 23 24 22 23 23 24 23 24 25 25 25 25 25 25 24 24 23 23 23 22 21 21 21 20 20 20 19 19 19 19 19 18 18 18 18 18 18 18 18 18 18 18 17 17 17 17 17
27 24 23 24 23 23 24 24 24 25 26 27 26 26 25 25 25 24 24 23 23 22 22 21 21 21 20 20 20 19 19 19 19 18 18 18 18 18 17 17 17 17 17 17 17 17 17 17 17
28 25 23 22 23 23 23 24 25 25 25 25 26 25 25 25 25 24 24 23 23 23 22 22 21 21 20 20 20 19 19 19 19 18 18 18 18 17 17 17 17 17 17 17 17 17 17 17 17
28 25 22 22 22 23 24 24 23 24 24 25 25 25 25 25 25 24 24 23 23 23 22 22 21 21 20 20 20 19 19 19 18 18 18 18 17 17 17 17 17 17 17 17 17 17 16 16 16
28 27 22 20 21 22 23 23 24 24 24 24 24 25 25 25 25 24 24 23 23 23 22 22 21 21 20 20 20 19 19 19 18 18 18 17 17 17 17 17 17 17 17 17 16 16 16 16 16
27 26 23 23 22 20 21 23 25 24 24 25 25 25 25 25 25 25 24 23 23 22 22 22 21 21 21 20 20 19 19 19 18 18 18 17 17 17 17 16 16 16 16 16 16 16 16 16 16
Wind_Speed
5 5 3 2 5 6 9 8 11 11 8 10 13 12 11 9 7 9 5 11 12 8 11 13 14 14 14 14 15 15 16 16 17 17 17 17 18 18 19 19 19 19 18 18 18 18 18 18 18
3 3 1 4 7 7 7 9 14 14 14 15 15 15 13 10 10 11 7 11 11 11 11 13 14 14 14 14 14 15 15 16 16 16 16 16 17 17 18 18 18 17 17 17 17 17 16 16 16
3 1 3 4 5 8 8 10 16 16 14 11 8 8 7 8 10 7 10 13 11 10 12 14 14 14 14 14 13 14 14 15 15 15 15 16 16 16 17 17 16 16 16 16 16 15 15 14 14
2 2 4 6 9 7 10 12 16 16 12 11 10 8 6 8 7 12 16 15 12 9 12 14 14 14 14 13 13 13 14 14 14 14 15 15 15 16 15 15 15 15 15 14 14 13 13 12 12
2 4 6 7 10 10 13 15 15 13 8 12 13 11 7 7 16 18 16 15 13 8 11 13 14 14 14 13 13 12 12 13 13 13 14 14 14 14 14 14 14 13 13 12 12 11 10 10 10
3 4 6 8 11 9 11 15 17 19 18 15 14 11 6 10 16 16 15 13 12 11 11 13 14 13 13 13 12 12 12 12 12 12 13 13 13 13 13 13 12 12 11 10 10 9 8 8 8
4 5 7 10 11 10 10 12 15 16 15 10 11 8 6 9 13 15 14 13 11 11 10 10 12 12 12 12 12 11 11 11 11 11 11 12 12 11 11 11 11 10 9 8 8 7 6 6 6
5 5 7 8 11 9 9 9 12 16 11 13 9 8 8 10 13 14 12 11 10 8 8 8 9 10 9 10 11 10 10 10 10 10 10 10 10 10 10 9 9 8 7 6 6 5 4 4 4
5 6 7 9 10 9 12 15 10 11 12 7 5 9 12 14 16 14 11 8 8 9 7 7 7 8 9 9 9 9 9 9 8 8 8 8 6 7 7 8 8 7 6 5 4 3 2 2 2
6 7 8 9 11 12 14 15 10 9 12 10 11 11 12 13 15 14 13 11 9 9 8 6 6 7 8 7 8 7 7 7 6 6 6 6 5 5 6 6 7 6 5 4 3 2 1 1 1
6 8 8 10 12 13 13 11 8 12 11 14 17 15 13 12 12 12 11 11 10 10 9 8 7 8 7 5 7 6 5 6 6 7 7 6 5 4 5 4 4 4 4 3 2 1 2 2 3
7 7 9 9 12 13 12 10 9 10 12 15 15 14 12 13 11 11 10 9 9 9 9 8 7 6 6 6 5 5 4 4 5 6 7 6 4 4 4 4 4 4 3 3 2 3 3 4 4
10 6 8 12 14 13 13 12 11 10 14 14 14 13 13 13 10 9 10 9 9 9 8 8 7 7 6 5 4 5 4 5 5 6 7 7 5 4 4 3 4 4 4 4 4 3 3 3 4
7 8 9 11 12 13 16 12 9 12 16 15 14 12 12 13 11 9 9 9 9 8 8 7 7 6 6 4 3 3 5 6 6 5 6 7 7 5 3 2 3 3 5 5 4 4 3 2 2
6 8 6 7 8 9 15 8 11 16 16 15 13 13 12 12 13 13 12 10 10 10 8 8 7 6 5 4 3 4 5 6 5 4 5 6 6 6 4 2 2 3 5 5 3 3 2 2 2
5 5 3 2 5 7 10 8 10 15 16 14 13 13 12 11 12 12 12 11 10 10 9 8 7 6 5 4 3 3 4 5 4 4 4 5 6 6 4 2 2 3 3 3 2 2 1 1 1
3 2 3 3 5 6 7 7 11 13 15 14 13 13 12 11 10 10 11 11 11 10 9 7 6 7 5 4 3 3 3 3 4 4 4 4 4 5 4 2 2 2 2 1 2 2 2 2 2
4 3 3 5 6 6 6 6 11 12 14 15 14 13 12 12 11 11 11 10 10 9 8 7 6 6 5 3 2 2 2 1 3 4 4 4 4 4 3 2 2 2 1 1 1 1 1 2 2
6 4 4 4 5 5 7 8 11 11 12 13 13 13 13 12 10 10 10 11 10 8 8 7 6 5 4 2 2 2 1 1 1 2 4 5 4 4 3 1 1 1 1 2 1 1 1 1 1
4 4 2 1 5 6 7 6 9 12 14 15 17 16 14 11 9 10 10 10 10 9 8 7 7 6 5 4 3 2 2 2 2 1 2 3 4 4 3 3 2 2 2 1 1 1 1 1 1
1 6 6 4 2 4 6 1 4 7 6 9 13 14 14 15 15 13 12 10 10 9 8 8 7 6 5 4 2 2 2 2 1 0 1 1 3 4 2 2 2 2 2 2 2 2 3 2 1
4 6 6 6 6 1 4 3 6 7 6 8 11 12 13 14 13 13 13 11 11 10 8 7 7 6 5 4 4 4 3 2 2 2 1 1 1 2 2 2 2 2 2 2 2 2 2 3 2
7 5 4 5 5 2 1 4 6 4 8 12 13 14 14 14 15 14 14 13 11 10 9 7 6 5 4 4 5 4 3 2 1 1 1 0 0 0 1 2 2 1 1 1 1 1 1 2 2
3 3 6 5 5 1 4 5 5 7 13 13 13 15 14 14 14 13 12 10 9 9 8 7 7 5 4 4 4 5 4 3 2 1 1 0 1 1 1 1 1 1 1 1 1 1 1 2 2
6 7 4 5 4 4 4 3 8 10 11 13 15 15 14 14 14 13 12 11 11 10 9 8 8 5 4 4 4 4 4 4 3 3 2 1 1 1 1 1 1 1 1 1 1 1 1 1 2
5 11 8 5 5 5 4 4 7 7 7 9 12 12 13 13 14 14 14 13 12 12 11 9 9 6 5 4 4 3 3 3 2 2 2 2 2 1 1 1 1 1 2 2 2 2 1 2 2
5 5 10 8 3 1 4 4 6 4 6 8 10 12 13 13 13 14 13 12 12 12 11 11 10 7 6 5 4 3 3 3 3 2 1 1 1 1 2 2 2 3 3 2 3 3 2 3 2
8 8 7 6 5 2 4 3 4 3 7 9 10 12 11 10 11 12 12 11 11 11 10 10 10 8 7 6 5 4 3 3 3 3 3 3 3 2 3 3 3 4 4 3 4 3 3 4 3
3 4 6 6 7 7 3 7 8 12 11 11 12 13 14 13 13 13 12 11 11 10 10 10 9 7 6 6 5 4 4 3 3 3 3 3 3 4 4 4 4 5 4 4 4 4 4 5 4
7 8 8 6 4 6 5 8 7 11 12 12 12 12 12 13 13 13 13 12 11 11 11 10 10 8 7 7 6 5 4 4 4 4 4 4 5 4 4 4 4 4 5 4 5 5 5 5 5
Wind_Direction
193 180 159 104 60 67 85 89 93 83 65 63 77 84 83 71 96 122 150 134 131 124 118 112 108 104 100 97 94 91 90 90 92 93 93 93 94 96 98 98 98 98 98 97 97 98 100 103 105
188 181 109 62 82 87 86 97 92 99 113 102 85 84 80 77 92 117 131 136 131 126 121 117 113 108 103 100 98 96 94 93 95 96 97 98 98 97 98 100 101 100 100 100 99 99 100 102 105
186 171 81 69 93 115 114 107 104 106 104 96 92 72 71 101 111 126 143 138 126 121 122 122 117 112 108 104 101 99 97 96 97 100 101 101 102 101 100 100 102 102 102 101 101 101 102 103 105
130 71 52 81 96 109 121 120 114 108 87 83 91 76 73 106 118 134 138 136 127 124 126 126 122 118 115 110 106 103 101 100 100 101 103 103 103 103 104 103 104 104 104 103 103 103 103 102 102
93 82 67 86 97 102 112 118 113 103 94 95 97 103 93 96 122 133 138 136 132 131 130 129 126 124 120 116 113 110 107 106 105 105 105 106 106 105 106 106 106 107 108 107 106 105 103 103 101
64 77 86 99 100 102 110 114 107 106 111 110 108 107 104 122 131 139 139 136 136 137 134 133 132 129 127 123 120 117 115 112 111 111 111 111 110 109 109 111 111 111 112 112 109 105 102 101 98
120 104 117 119 111 111 117 120 118 125 126 125 124 106 121 137 141 141 139 136 136 137 136 136 136 133 133 131 127 125 122 119 116 117 119 119 118 117 116 116 117 117 117 116 113 109 103 97 93
142 107 103 110 116 118 116 106 125 130 120 134 127 122 149 157 141 135 133 132 134 139 142 142 140 137 136 139 136 135 133 129 126 125 125 127 127 126 127 127 127 127 127 125 120 115 105 90 80
107 90 121 135 128 125 113 101 103 107 121 133 108 128 150 143 133 129 129 128 139 146 152 153 152 151 152 152 147 145 144 144 140 137 136 132 128 132 138 143 143 142 142 143 141 133 110 68 58
98 120 153 149 137 135 126 119 119 110 108 109 112 123 137 136 134 138 144 149 154 159 166 164 164 167 168 162 153 160 159 161 161 161 154 151 156 166 160 163 161 161 165 173 180 176 195 342 327
107 135 139 128 130 129 125 123 116 121 128 143 145 148 144 139 139 143 150 154 159 164 167 168 171 170 172 161 159 170 174 176 180 181 178 171 176 178 172 177 179 181 188 200 211 241 261 269 283
103 124 129 132 129 126 128 128 124 135 152 155 151 149 145 144 149 149 151 153 152 156 161 160 161 159 160 155 167 173 177 181 181 182 180 170 161 162 176 186 194 196 205 207 215 236 251 259 264
110 121 120 130 130 128 122 125 125 133 143 146 145 143 146 150 153 151 149 145 143 144 148 150 148 145 146 145 166 167 181 187 180 173 172 165 161 165 177 193 198 203 204 195 199 223 247 258 260
135 124 124 126 123 128 123 123 118 145 148 151 151 152 156 157 153 150 148 145 144 144 147 146 143 145 140 135 138 152 171 175 169 166 170 160 164 167 169 183 196 204 205 200 199 210 227 245 244
100 99 95 125 119 127 115 112 145 156 154 156 160 162 161 161 158 162 165 157 154 154 153 151 151 147 140 138 142 142 158 163 165 172 174 163 164 167 171 178 201 210 206 197 200 209 219 238 237
76 86 113 210 135 147 119 152 170 162 158 161 165 167 166 167 169 168 165 159 158 156 157 163 157 151 152 149 141 137 155 159 164 168 170 167 170 171 166 170 210 215 204 196 198 195 188 234 225
42 138 180 199 182 153 123 161 179 171 164 167 171 172 170 170 174 173 167 162 162 160 158 160 152 159 165 159 146 139 151 162 171 172 177 176 171 170 165 177 214 215 195 199 210 183 178 205 228
215 192 187 188 191 144 133 165 169 176 174 175 177 176 174 173 180 176 166 161 157 156 152 152 155 162 160 147 126 112 115 148 173 180 186 184 180 175 169 190 218 193 142 201 201 192 189 192 205
185 165 183 198 172 138 147 159 175 180 180 180 180 180 180 181 179 169 162 158 153 153 151 157 156 165 155 144 149 151 172 187 191 200 192 189 187 174 168 181 191 166 172 214 201 172 175 222 147
144 131 169 235 155 139 154 173 187 186 188 189 184 184 182 176 167 167 163 159 160 163 165 164 165 168 169 168 171 171 168 180 184 196 192 192 185 181 181 182 182 183 184 205 211 171 171 238 154
181 174 188 184 108 85 110 70 211 207 198 193 194 187 181 178 174 172 169 168 165 170 174 171 169 169 173 166 139 112 83 68 71 77 230 226 189 181 180 169 169 177 177 200 221 198 182 209 244
243 216 170 157 125 200 134 184 251 211 210 202 198 189 185 181 176 174 173 172 174 177 174 165 166 168 170 156 149 155 163 177 198 193 206 238 199 191 184 178 171 173 179 199 220 188 180 170 207
217 203 145 152 135 104 79 144 259 191 207 213 201 193 186 183 179 178 178 177 175 172 169 166 161 162 162 156 161 160 162 180 186 162 161 200 297 234 199 191 180 184 187 203 216 183 161 167 178
181 71 47 56 75 73 232 159 244 206 206 204 194 188 183 180 177 177 175 167 165 163 163 162 158 160 155 152 152 157 162 163 152 140 151 205 275 296 280 177 169 185 182 188 188 164 145 158 165
100 93 43 8 20 254 259 177 239 230 210 192 183 184 181 175 173 171 167 164 164 164 164 164 158 158 156 151 152 160 165 164 167 172 174 184 218 255 255 201 177 179 179 151 137 116 113 131 138
170 137 153 180 203 264 312 235 260 245 203 180 173 172 170 172 174 172 171 169 169 167 165 163 161 159 156 154 154 152 152 154 159 170 171 190 201 221 213 133 108 80 80 88 79 79 89 87 95
166 168 163 141 159 158 288 289 320 51 117 145 155 159 169 172 172 171 169 169 167 166 167 165 163 162 162 159 151 145 145 144 142 137 135 145 161 128 83 80 73 67 76 79 81 77 69 74 73
167 155 100 116 144 207 284 260 222 189 165 166 163 167 168 164 163 165 167 167 167 166 163 160 161 166 162 157 159 154 144 136 131 117 97 88 77 74 76 78 78 72 66 67 75 71 63 67 55
167 128 117 125 148 152 217 264 223 193 180 177 180 173 165 166 168 168 169 164 160 155 155 157 159 157 156 156 148 139 133 127 115 112 107 99 86 76 73 78 77 71 67 71 77 72 68 69 56
175 177 148 151 196 158 165 259 258 192 183 177 176 170 166 167 166 166 162 158 159 161 162 160 160 158 160 155 144 138 129 118 110 102 97 99 92 83 85 80 76 71 67 71 82 79 68 68 62
Height
1503 1502 1502 1504 1508 1520 1525 1520 1514 1515 1518 1519 1518 1519 1523 1528 1534 1544 1543 1542 1543 1542 1542 1542 1542 1542 1541 1541 1541 1540 1539 1539 1539 1538 1537 1537 1537 1538 1538 1538 1538 1539 1539 1540 1541 1542 1542 1543 1544
1503 1503 1504 1506 1517 1535 1531 1519 1517 1518 1521 1521 1523 1524 1526 1533 1535 1539 1541 1543 1543 1543 1544 1544 1544 1543 1543 1543 1543 1542 1542 1541 1541 1541 1540 1540 1540 1541 1541 1541 1542 1542 1543 1543 1544 1545 1546 1546 1547
1503 1504 1506 1510 1521 1531 1529 1519 1518 1521 1522 1521 1524 1527 1530 1536 1538 1540 1542 1544 1544 1545 1545 1545 1545 1545 1545 1545 1544 1544 1544 1544 1543 1543 1543 1543 1543 1544 1544 1544 1545 1545 1546 1547 1547 1548 1549 1549 1550
1505 1506 1508 1515 1523 1518 1517 1518 1518 1521 1524 1524 1526 1531 1535 1538 1539 1541 1543 1545 1545 1546 1546 1546 1546 1546 1546 1546 1546 1546 1546 1546 1546 1546 1546 1546 1546 1546 1547 1547 1548 1548 1549 1550 1550 1551 1552 1553 1553
1505 1507 1515 1523 1522 1517 1515 1517 1518 1520 1524 1528 1528 1534 1538 1541 1541 1543 1544 1546 1546 1546 1547 1548 1548 1548 1548 1548 1548 1548 1548 1548 1548 1548 1548 1549 1549 1549 1550 1550 1550 1551 1552 1552 1553 1554 1555 1555 1556
1507 1508 1524 1531 1524 1518 1518 1518 1520 1524 1528 1531 1532 1535 1541 1543 1543 1545 1546 1547 1548 1548 1548 1549 1549 1550 1550 1550 1550 1550 1550 1550 1550 1550 1551 1551 1551 1552 1552 1553 1553 1554 1554 1555 1556 1556 1557 1558 1559
1507 1512 1523 1524 1524 1523 1520 1520 1521 1526 1530 1532 1533 1537 1542 1544 1545 1546 1548 1549 1549 1550 1550 1551 1551 1551 1552 1552 1552 1552 1552 1553 1553 1553 1553 1553 1554 1554 1554 1555 1556 1556 1557 1557 1558 1559 1560 1560 1561
1503 1510 1521 1523 1524 1525 1521 1521 1524 1526 1530 1534 1535 1537 1541 1545 1546 1548 1549 1550 1551 1552 1552 1552 1553 1553 1553 1554 1554 1554 1554 1554 1555 1555 1555 1555 1556 1556 1557 1557 1558 1558 1559 1559 1560 1561 1562 1562 1563
1502 1516 1526 1523 1523 1523 1521 1522 1527 1528 1531 1534 1535 1537 1541 1544 1546 1548 1550 1551 1552 1553 1554 1554 1554 1555 1555 1555 1556 1556 1556 1556 1557 1557 1557 1557 1558 1558 1559 1559 1560 1560 1561 1561 1562 1563 1564 1564 1564
1502 1519 1518 1512 1513 1518 1520 1522 1526 1531 1533 1536 1538 1541 1543 1545 1547 1548 1550 1551 1553 1554 1555 1555 1555 1556 1556 1557 1557 1557 1557 1558 1558 1558 1559 1559 1559 1560 1560 1561 1562 1562 1563 1563 1564 1565 1565 1565 1566
1502 1510 1509 1510 1512 1515 1520 1523 1526 1530 1535 1536 1537 1541 1544 1546 1548 1549 1550 1552 1553 1554 1555 1555 1556 1556 1557 1558 1558 1558 1559 1559 1559 1560 1560 1560 1561 1561 1561 1562 1562 1563 1564 1564 1565 1565 1566 1566 1566
1503 1505 1507 1510 1512 1516 1520 1524 1528 1529 1533 1535 1537 1540 1543 1546 1548 1549 1551 1552 1553 1554 1555 1556 1556 1557 1558 1558 1559 1559 1559 1560 1560 1561 1561 1561 1561 1562 1562 1563 1563 1564 1564 1565 1566 1566 1566 1566 1567
1504 1507 1508 1510 1512 1516 1519 1524 1527 1531 1534 1537 1539 1542 1544 1546 1548 1550 1551 1552 1553 1554 1555 1556 1557 1557 1558 1559 1559 1560 1560 1561 1561 1561 1561 1561 1562 1562 1562 1563 1563 1564 1564 1565 1566 1566 1566 1566 1566
1505 1507 1510 1512 1514 1517 1520 1526 1528 1533 1535 1538 1540 1542 1544 1546 1548 1549 1551 1552 1553 1554 1555 1556 1557 1558 1559 1559 1560 1560 1560 1561 1561 1561 1561 1561 1562 1562 1562 1563 1563 1564 1564 1565 1565 1566 1566 1566 1566
1506 1511 1515 1515 1516 1521 1522 1531 1530 1532 1535 1538 1540 1542 1544 1546 1547 1548 1550 1552 1553 1554 1555 1556 1557 1558 1559 1559 1560 1560 1560 1560 1561 1561 1561 1561 1561 1562 1562 1562 1563 1563 1564 1564 1565 1565 1565 1566 1566
1510 1519 1527 1520 1518 1521 1526 1540 1531 1532 1534 1537 1539 1541 1543 1545 1546 1548 1550 1551 1552 1554 1555 1556 1557 1558 1558 1559 1559 1560 1560 1560 1560 1561 1561 1561 1561 1561 1561 1562 1562 1563 1563 1563 1564 1564 1564 1565 1565
1521 1531 1530 1523 1517 1518 1524 1535 1531 1531 1533 1535 1538 1540 1542 1544 1546 1548 1549 1550 1552 1553 1554 1555 1556 1557 1558 1558 1559 1559 1559 1559 1560 1560 1560 1560 1560 1560 1560 1561 1561 1562 1562 1562 1563 1563 1563 1563 1563
1530 1528 1527 1525 1517 1518 1525 1529 1528 1531 1532 1534 1536 1538 1540 1542 1544 1546 1548 1549 1551 1552 1553 1554 1555 1556 1557 1558 1558 1558 1558 1559 1559 1559 1560 1559 1559 1559 1560 1560 1560 1560 1561 1561 1561 1561 1562 1562 1562
1514 1520 1524 1519 1513 1519 1525 1528 1528 1529 1531 1532 1534 1536 1538 1540 1542 1545 1547 1548 1550 1551 1552 1553 1554 1555 1556 1556 1557 1557 1557 1558 1558 1558 1558 1558 1558 1559 1559 1559 1559 1559 1559 1559 1559 1560 1560 1560 1560
1510 1519 1522 1518 1513 1519 1526 1528 1525 1525 1526 1528 1530 1533 1535 1538 1541 1543 1545 1547 1548 1550 1551 1552 1553 1554 1554 1555 1556 1556 1556 1556 1557 1557 1557 1557 1558 1558 1558 1558 1558 1558 1558 1558 1558 1558 1558 1558 1558
1511 1517 1519 1521 1517 1519 1527 1535 1529 1525 1526 1528 1529 1530 1533 1535 1537 1540 1543 1545 1546 1548 1549 1551 1552 1552 1553 1554 1554 1555 1555 1555 1556 1556 1556 1556 1556 1556 1556 1556 1556 1556 1556 1556 1556 1556 1556 1556 1556
1516 1505 1507 1514 1526 1537 1532 1552 1535 1527 1526 1526 1528 1529 1531 1533 1535 1538 1540 1542 1544 1546 1548 1549 1550 1551 1552 1552 1553 1553 1554 1554 1554 1555 1555 1555 1555 1555 1555 1555 1555 1554 1554 1554 1554 1554 1554 1554 1553
1505 1499 1504 1511 1523 1536 1535 1548 1540 1528 1530 1525 1524 1526 1528 1530 1533 1535 1538 1540 1542 1545 1546 1548 1549 1550 1550 1551 1551 1552 1552 1553 1553 1553 1554 1554 1554 1554 1554 1553 1553 1553 1553 1552 1552 1552 1551 1551 1551
1496 1502 1511 1522 1532 1550 1538 1544 1544 1529 1522 1518 1519 1522 1524 1528 1531 1534 1537 1539 1541 1543 1545 1546 1547 1548 1549 1549 1550 1550 1551 1551 1552 1552 1552 1552 1552 1552 1552 1552 1551 1551 1551 1550 1550 1550 1549 1549 1548
1500 1523 1547 1550 1560 1555 1534 1538 1536 1513 1508 1510 1513 1517 1521 1524 1528 1531 1534 1537 1540 1542 1543 1544 1546 1547 1548 1548 1549 1549 1550 1550 1550 1550 1551 1551 1551 1551 1551 1550 1550 1549 1549 1548 1548 1548 1547 1547 1546
1504 1518 1547 1560 1562 1553 1536 1537 1521 1503 1502 1506 1510 1514 1518 1521 1525 1528 1531 1535 1538 1540 1541 1543 1544 1545 1546 1547 1548 1548 1548 1549 1549 1549 1549 1549 1549 1549 1549 1549 1549 1548 1547 1547 1546 1546 1545 1544 1544
1502 1513 1517 1538 1545 1553 1545 1529 1513 1500 1503 1507 1510 1513 1516 1519 1522 1526 1529 1533 1536 1538 1540 1542 1543 1545 1546 1547 1548 1548 1548 1548 1548 1548 1548 1548 1548 1548 1548 1548 1547 1547 1546 1545 1545 1544 1543 1543 1542
1491 1501 1521 1537 1554 1561 1548 1537 1530 1512 1509 1507 1509 1511 1514 1517 1520 1524 1528 1532 1535 1537 1539 1541 1543 1544 1545 1546 1547 1547 1547 1547 1547 1547 1547 1547 1547 1547 1547 1546 1546 1546 1545 1544 1544 1543 1542 1542 1541
1495 1502 1516 1532 1538 1555 1557 1543 1508 1505 1503 1505 1506 1507 1510 1514 1518 1522 1526 1530 1533 1536 1538 1540 1542 1544 1545 1546 1547 1547 1547 1547 1547 1547 1547 1547 1547 1547 1546 1546 1545 1545 1544 1544 1543 1542 1542 1541 1540
1488 1497 1511 1529 1536 1540 1547 1536 1496 1496 1497 1500 1503 1506 1509 1512 1516 1520 1524 1528 1531 1534 1536 1538 1540 1542 1544 1545 1546 1547 1547 1547 1547 1547 1547 1547 1547 1546 1546 1545 1545 1544 1544 1543 1542 1542 1541 1540 1540